Weather History for Indianapolis, IN

Change the Weather History Date:

Sunday, February 23, 2014

  Actual Average (KEYE) Record (KEYE)
Temperature  
Mean Temperature 28 °F 34 °F  
Max Temperature 34 °F 43 °F 52 °F (2004)
Min Temperature 23 °F 26 °F 14 °F (2009)
Degree Days  
Heating Degree Days 36 31  
Month to date heating degree days 776  
Since 1 July heating degree days 3977  
Cooling Degree Days 0 0  
Month to date cooling degree days 0  
Year to date cooling degree days 0  
Moisture  
Dew Point 20 °F    
Average Humidity 71    
Maximum Humidity 90    
Minimum Humidity 44    
Precipitation  
Precipitation 0.02 in 0.08 in 0.09 in (2011)
Month to date precipitation 1.72  
Year to date precipitation 3.93  
Sea Level Pressure  
Sea Level Pressure 30.14 in    
Wind  
Wind Speed 7 mph (NW)    
Max Wind Speed 13 mph    
Max Gust Speed 21 mph    
Visibility 9 miles    
Events Snow    
T = Trace of Precipitation, MM = Missing Value Source: NWS Daily Summary

Daily Weather History Graph

Daily Weather History Graph

Search for Another Location

Airport:

Trip Planner

Search our weather history database for the weather conditions in past years. The results will help you decide how hot, cold, wet, or windy it might be!

Date:

Astronomy

Feb. 23, 2014 Rise Set
Actual Time 7:27 AM EST 6:30 PM EST
Civil Twilight 6:59 AM EST 6:57 PM EST
Nautical Twilight 6:28 AM EST 7:29 PM EST
Astronomical Twilight 5:56 AM EST 8:00 PM EST
Moon 2:24 AM EST (2/23) 12:32 PM EST (2/23)
Length of Visible Light 11h 57m
Length of Day
11h 03m
Last Quarter, 39% of the Moon is Illuminated
Feb 23
Last Quarter
Mar 1
New
Mar 8
First Quarter
Mar 16
Full
Mar 23
Last Quarter

Hourly Weather History & Observations

Time (EST) Temp. Windchill Dew Point Humidity Pressure Visibility Wind Dir Wind Speed Gust Speed Precip Events Conditions
12:15 AM 34.2 °F 30.0 °F 30.9 °F 88% 30.03 in 10.0 mi North 4.6 mph - N/A   Overcast
12:35 AM 33.8 °F 26.4 °F 30.7 °F 89% 30.04 in 10.0 mi North 9.2 mph - N/A   Overcast
12:55 AM 33.1 °F 26.1 °F 29.8 °F 88% 30.05 in 10.0 mi North 8.1 mph - N/A   Overcast
1:15 AM 32.9 °F 26.7 °F 29.8 °F 88% 30.04 in 7.0 mi North 6.9 mph - N/A Snow Light Snow
1:35 AM 32.4 °F 25.3 °F 29.3 °F 88% 30.05 in 5.0 mi North 8.1 mph - N/A Snow Light Snow
1:55 AM 32.2 °F 28.9 °F 29.3 °F 89% 30.05 in 0.5 mi North 3.5 mph - N/A Snow Snow
2:15 AM 32.0 °F - 29.3 °F 90% 30.05 in 0.8 mi Calm Calm - 0.01 in Snow Snow
2:35 AM 32.0 °F 28.7 °F 29.3 °F 90% 30.04 in 0.8 mi North 3.5 mph - 0.02 in Snow Light Snow
2:55 AM 31.8 °F 28.5 °F 28.9 °F 89% 30.03 in 2.5 mi North 3.5 mph - 0.02 in Snow Light Snow
3:15 AM 31.1 °F - 28.0 °F 88% 30.02 in 3.0 mi Calm Calm - N/A   Overcast
3:35 AM 30.7 °F - 27.5 °F 88% 30.03 in 5.0 mi Calm Calm - N/A   Overcast
3:55 AM 30.6 °F 25.8 °F 27.5 °F 88% 30.04 in 10.0 mi NNW 4.6 mph - N/A   Overcast
4:15 AM 30.6 °F 27.1 °F 27.5 °F 88% 30.05 in 10.0 mi NNW 3.5 mph - N/A   Overcast
4:35 AM 30.6 °F - 27.3 °F 88% 30.06 in 10.0 mi Calm Calm - N/A   Overcast
5:00 AM 30.6 °F - 27.1 °F 87% 30.06 in 10.0 mi Calm Calm - N/A   Overcast
5:15 AM 30.6 °F - 27.1 °F 87% 30.06 in 10.0 mi Calm Calm - N/A   Overcast
5:35 AM 30.2 °F 26.7 °F 27.0 °F 88% 30.07 in 10.0 mi NNW 3.5 mph - N/A   Overcast
5:55 AM 30.4 °F 24.5 °F 26.6 °F 86% 30.08 in 10.0 mi NNW 5.8 mph - N/A   Overcast
6:15 AM 30.2 °F 22.6 °F 25.5 °F 83% 30.08 in 10.0 mi NNW 8.1 mph - N/A   Overcast
6:35 AM 30.2 °F 21.9 °F 25.2 °F 82% 30.11 in 10.0 mi NNW 9.2 mph - N/A   Overcast
6:55 AM 29.3 °F 21.5 °F 24.1 °F 81% 30.10 in 10.0 mi NW 8.1 mph - N/A   Overcast
7:15 AM 28.4 °F 19.1 °F 22.6 °F 79% 30.12 in 10.0 mi NNW 10.4 mph - N/A   Overcast
7:35 AM 27.9 °F 19.8 °F 21.2 °F 76% 30.11 in 10.0 mi NNW 8.1 mph - N/A   Overcast
7:55 AM 27.3 °F 19.9 °F 20.8 °F 77% 30.11 in 10.0 mi NNW 6.9 mph - N/A   Overcast
8:15 AM 27.1 °F 20.7 °F 19.9 °F 74% 30.14 in 10.0 mi NW 5.8 mph - N/A   Overcast
8:35 AM 27.1 °F 17.5 °F 19.6 °F 73% 30.16 in 10.0 mi NW 10.4 mph - N/A   Overcast
8:55 AM 26.6 °F 18.2 °F 18.7 °F 72% 30.17 in 10.0 mi NNW 8.1 mph - N/A   Overcast
9:15 AM 27.1 °F 23.2 °F 19.4 °F 73% 30.17 in 10.0 mi WNW 3.5 mph - N/A   Overcast
9:40 AM 27.5 °F 20.2 °F 19.0 °F 71% 30.16 in 10.0 mi NW 6.9 mph - N/A   Overcast
9:55 AM 27.3 °F 19.1 °F 18.9 °F 70% 30.16 in 10.0 mi NNW 8.1 mph - N/A   Overcast
10:15 AM 27.5 °F 20.2 °F 19.4 °F 72% 30.16 in 10.0 mi NW 6.9 mph - N/A   Overcast
10:35 AM 27.5 °F 22.2 °F 19.4 °F 72% 30.14 in 10.0 mi NNW 4.6 mph - N/A   Overcast
10:55 AM 27.5 °F 22.2 °F 19.2 °F 71% 30.14 in 10.0 mi WNW 4.6 mph - N/A   Mostly Cloudy
11:15 AM 28.0 °F 20.8 °F 20.1 °F 72% 30.15 in 10.0 mi WNW 6.9 mph - N/A   Mostly Cloudy
11:35 AM 28.2 °F 19.5 °F 19.8 °F 71% 30.15 in 10.0 mi NW 9.2 mph - N/A   Mostly Cloudy
11:55 AM 28.6 °F 19.9 °F 20.3 °F 71% 30.16 in 10.0 mi WNW 9.2 mph - N/A   Scattered Clouds
12:15 PM 28.9 °F 21.1 °F 20.3 °F 70% 30.16 in 10.0 mi NNW 8.1 mph - N/A   Scattered Clouds
12:35 PM 29.3 °F 20.2 °F 19.8 °F 68% 30.15 in 10.0 mi NNW 10.4 mph - N/A   Mostly Cloudy
12:55 PM 29.3 °F 21.5 °F 20.1 °F 69% 30.16 in 10.0 mi NW 8.1 mph - N/A   Scattered Clouds
1:15 PM 29.3 °F 20.2 °F 18.1 °F 63% 30.15 in 10.0 mi WNW 10.4 mph - N/A   Scattered Clouds
1:35 PM 30.0 °F 20.5 °F 16.3 °F 57% 30.15 in 10.0 mi NW 11.5 mph - N/A   Clear
1:55 PM 30.6 °F 21.2 °F 18.0 °F 60% 30.15 in 10.0 mi NW 11.5 mph - N/A   Clear
2:15 PM 29.8 °F 20.9 °F 16.7 °F 58% 30.16 in 10.0 mi NW 10.4 mph - N/A   Scattered Clouds
2:35 PM 29.3 °F 20.8 °F 14.7 °F 55% 30.16 in 10.0 mi NW 9.2 mph - N/A   Mostly Cloudy
2:55 PM 28.9 °F 21.1 °F 17.2 °F 62% 30.16 in 10.0 mi WNW 8.1 mph - N/A   Mostly Cloudy
3:15 PM 28.4 °F 20.4 °F 15.8 °F 59% 30.16 in 10.0 mi WNW 8.1 mph - N/A   Mostly Cloudy
3:35 PM 28.9 °F 18.6 °F 15.4 °F 57% 30.16 in 10.0 mi NW 12.7 mph - N/A   Scattered Clouds
3:55 PM 30.0 °F 21.7 °F 16.5 °F 57% 30.16 in 10.0 mi NW 9.2 mph - N/A   Clear
4:15 PM 30.0 °F 21.1 °F 15.1 °F 54% 30.16 in 10.0 mi NW 10.4 mph 16.1 mph N/A   Clear
4:35 PM 30.4 °F 21.5 °F 14.0 °F 51% 30.16 in 10.0 mi NNW 10.4 mph 18.4 mph N/A   Clear
4:55 PM 30.2 °F 20.8 °F 13.6 °F 50% 30.17 in 10.0 mi NW 11.5 mph 17.3 mph N/A   Clear
5:15 PM 30.2 °F 21.9 °F 12.7 °F 48% 30.16 in 10.0 mi NW 9.2 mph - N/A   Clear
5:35 PM 29.7 °F 20.1 °F 12.6 °F 49% 30.17 in 10.0 mi NW 11.5 mph 17.3 mph N/A   Clear
5:55 PM 29.3 °F 19.1 °F 9.9 °F 44% 30.18 in 10.0 mi NW 12.7 mph 16.1 mph N/A   Clear
6:15 PM 28.9 °F 19.8 °F 12.2 °F 50% 30.18 in 10.0 mi NW 10.4 mph - N/A   Clear
6:35 PM 28.0 °F 20.0 °F 11.5 °F 50% 30.18 in 10.0 mi NW 8.1 mph - N/A   Clear
6:55 PM 27.3 °F 19.1 °F 12.2 °F 53% 30.19 in 10.0 mi NW 8.1 mph - N/A   Clear
7:15 PM 26.6 °F 19.1 °F 13.3 °F 57% 30.19 in 10.0 mi NW 6.9 mph - N/A   Clear
7:35 PM 25.5 °F 19.9 °F 13.1 °F 59% 30.20 in 10.0 mi WNW 4.6 mph - N/A   Clear
7:55 PM 25.3 °F 19.7 °F 12.7 °F 59% 30.20 in 10.0 mi WNW 4.6 mph - N/A   Clear
8:15 PM 25.0 °F 17.1 °F 13.8 °F 63% 30.21 in 10.0 mi West 6.9 mph - N/A   Clear
8:35 PM 25.2 °F 16.5 °F 14.9 °F 65% 30.21 in 10.0 mi West 8.1 mph - N/A   Clear
8:55 PM 24.8 °F 16.1 °F 14.9 °F 66% 30.21 in 10.0 mi West 8.1 mph - N/A   Clear
9:15 PM 24.8 °F 15.3 °F 15.3 °F 67% 30.21 in 10.0 mi West 9.2 mph - N/A   Clear
9:35 PM 24.8 °F 16.1 °F 14.9 °F 66% 30.21 in 10.0 mi West 8.1 mph - N/A   Clear
9:55 PM 24.6 °F 15.8 °F 15.4 °F 68% 30.21 in 10.0 mi West 8.1 mph - N/A   Clear
10:15 PM 24.3 °F 14.6 °F 14.9 °F 68% 30.21 in 10.0 mi West 9.2 mph - N/A   Clear
10:35 PM 24.1 °F 13.7 °F 15.4 °F 70% 30.22 in 10.0 mi West 10.4 mph - N/A   Clear
10:55 PM 23.9 °F 15.0 °F 15.4 °F 70% 30.21 in 10.0 mi West 8.1 mph - N/A   Clear
11:15 PM 23.9 °F 12.9 °F 15.6 °F 71% 30.21 in 10.0 mi West 11.5 mph - N/A   Clear
11:35 PM 23.9 °F 14.2 °F 15.8 °F 71% 30.21 in 10.0 mi West 9.2 mph - N/A   Clear
11:55 PM 23.7 °F 14.7 °F 15.6 °F 71% 30.22 in 10.0 mi West 8.1 mph 20.7 mph N/A   Clear